Regional Weather Roundup
Issued by NWS

Home | Current Version | Previous Version | Graphics & Text | Print | Product List | Glossary On
Versions: 1 2 3 4 5 6 7 8 9 10 11 12 13 14 15 16 17 18 19 20 21 22 23 24 25 26 27 28 29 30 31 32 33 34 35 36 37 38 39 40 41 42 43 44 45 46 47 48 49 50
000
ASUS43 KOAX 040602
RWRNE

WEATHER ROUNDUP FOR NEBRASKA
NATIONAL WEATHER SERVICE OMAHA NE
100 AM CDT FRI SEP 04 2015

NOTES: SATELLITE DATA IS BEING USED TO AUGMENT CLOUD COVER ABOVE
       12000 FEET.
       "FAIR" INDICATES FEW OR NO CLOUDS BELOW 12,000 FEET WITH NO
       SIGNIFICANT WEATHER AND/OR OBSTRUCTIONS TO VISIBILITY.

  * THESE STATIONS DO NOT REPORT WEATHER SUCH AS RAIN...SNOW OR FOG.

NEZ001>004-019>022-054>056-040700-
NEBRASKA PANHANDLE

CITY           SKY/WX    TMP DP  RH WIND       PRES   REMARKS
SCOTTSBLUFF    CLOUDY    66  60  81 CALM      29.87F
6HR MIN TEMP:  66; 6HR MAX TEMP:  82; 6HR PCP:  0.01;

ALLIANCE       CLOUDY    67  55  65 NW5       29.86F
6HR MIN TEMP:  67; 6HR MAX TEMP:  84;

CHADRON        LGT RAIN  73  54  51 SW9       29.81S
6HR MIN TEMP:  73; 6HR MAX TEMP:  90; 6HR PCP: TRACE;

KIMBALL        MOCLDY    58  54  88 W6        29.92F
SIDNEY         MOCLDY    59  54  83 CALM      29.91F
6HR MIN TEMP:  59; 6HR MAX TEMP:  81; 6HR PCP: TRACE;

$$

NEZ057>060-069>072-079>082-040700-
SOUTHWEST NEBRASKA

CITY           SKY/WX    TMP DP  RH WIND       PRES   REMARKS
NORTH PLATTE   CLOUDY    69  62  78 NW10      29.82F
6HR MIN TEMP:  69; 6HR MAX TEMP:  85; 6HR PCP:  0.02;

IMPERIAL       CLOUDY    68  63  84 CALM      29.83S
6HR MIN TEMP:  68; 6HR MAX TEMP:  94; 6HR PCP:  0.06;

LEXINGTON      CLOUDY    80  61  52 SE8       29.80R
MCCOOK         CLOUDY    82  59  45 S6        29.80F
6HR MIN TEMP:  81; 6HR MAX TEMP:  92;

$$

NEZ005>010-023>029-035>040-094-040700-
NORTH CENTRAL NEBRASKA

CITY           SKY/WX    TMP DP  RH WIND       PRES   REMARKS
VALENTINE      CLOUDY    76  56  49 NE3       29.75F
6HR MIN TEMP:  76; 6HR MAX TEMP:  90;

AINSWORTH      CLOUDY    79  63  57 S10       29.77S
BROKEN BOW     CLOUDY    79  61  53 SE6       29.80S
6HR MIN TEMP:  79; 6HR MAX TEMP:  91;

ORD            MOCLDY    73  64  73 CALM      29.78S
6HR MIN TEMP:  72; 6HR MAX TEMP:  92;

$$

NEZ041-046>049-061>064-073>077-083>087-040700-
SOUTH CENTRAL NEBRASKA

CITY           SKY/WX    TMP DP  RH WIND       PRES   REMARKS
GRAND ISLAND   MOCLDY    77  64  64 S15       29.82S
6HR MIN TEMP:  77; 6HR MAX TEMP:  90;

AURORA         MOCLDY    77  65  66 S12       29.82S
HASTINGS       MOCLDY    77  63  61 S10       29.82S
6HR MIN TEMP:  77; 6HR MAX TEMP:  91;

KEARNEY *      MOCLDY    79  61  53 S17       29.80S
YORK           MOCLDY    75  66  73 S13       29.84S
$$

NEZ011>018-030>034-042>045-040700-
NORTHEAST NEBRASKA

CITY           SKY/WX    TMP DP  RH WIND       PRES   REMARKS
NORFOLK        PTCLDY    77  67  71 S15       29.80S
6HR MIN TEMP:  77; 6HR MAX TEMP:  86;

ALBION         PTCLDY    73  65  75 SE7       29.81S
BLAIR          PTCLDY    76  66  71 S13       29.86R
COLUMBUS *     PTCLDY    79  64  61 S10G16    29.83R
FREMONT        PTCLDY    78  66  67 SE10      29.85R
TEKAMAH        PTCLDY    73  70  90 SE6       29.84R
6HR MIN TEMP:  73; 6HR MAX TEMP:  86;

$$

NEZ050>053-065>068-078-088>093-040700-
SOUTHEAST NEBRASKA

CITY           SKY/WX    TMP DP  RH WIND       PRES   REMARKS
LINCOLN        PTCLDY    79  67  66 S13       29.85R
6HR MIN TEMP:  78; 6HR MAX TEMP:  90;

OMAHA EPPLEY   PTCLDY    79  68  69 S14       29.85S
6HR MIN TEMP:  79; 6HR MAX TEMP:  88;

BEATRICE       MOCLDY    77  67  72 S10G17    29.87R
FALLS CITY     PTCLDY    75  68  78 S7        29.88S
6HR MIN TEMP:  74; 6HR MAX TEMP:  87;

NEBRASKA CITY  PTCLDY    72  65  79 S9        29.88S
PLATTSMOUTH    CLEAR     74  66  75 SE9       29.87S
$$

NEZ044-045-051>053-067-040700-
OMAHA AREA

CITY           SKY/WX    TMP DP  RH WIND       PRES   REMARKS
OMAHA EPPLEY   PTCLDY    79  68  69 S14       29.85S
6HR MIN TEMP:  79; 6HR MAX TEMP:  88;

BLAIR          PTCLDY    76  66  71 S13       29.86R
FREMONT        PTCLDY    78  66  67 SE10      29.85R
OFFUTT AFB     PTCLDY    76  69  78 SE7       29.85S
PLATTSMOUTH    CLEAR     74  66  75 SE9       29.87S
WAHOO          FAIR      74  68  81 SE8       29.84S
$$



USA.gov is the U.S. government's official web portal to all federal, state and local government web resources and services.